Regional Weather Roundup
Issued by NWS

Home | Current Version | Previous Version | Graphics & Text | Print | Product List | Glossary On
Versions: 1 2 3 4 5 6 7 8 9 10 11 12 13 14 15 16 17 18 19 20 21 22 23 24 25 26 27 28 29 30 31 32 33 34 35 36 37 38 39 40 41 42 43 44 45 46 47 48 49 50
000
ASUS43 KBIS 281210
RWRND

NORTH DAKOTA REGIONAL WEATHER ROUNDUP
NATIONAL WEATHER SERVICE BISMARCK ND
700 AM CDT SUN MAY 28 2017

NOTE: "FAIR" INDICATES FEW OR NO CLOUDS BELOW 12,000 FEET WITH NO
SIGNIFICANT WEATHER AND/OR OBSTRUCTIONS TO VISIBILITY.


NDZ001>003-009>011-017-281300-
NORTHWEST NORTH DAKOTA

CITY           SKY/WX    TMP DP  RH WIND       PRES   REMARKS
WILLISTON      FAIR      52  36  54 NW8       29.97S
6HR MIN TEMP:  46; 6HR MAX TEMP:  54;

MINOT          FAIR      53  43  68 W15       29.88S
MINOT AFB      CLEAR     51  44  78 NW14      29.88R
$$

NDZ018>021-031>035-040>046-281300-
SOUTHWEST NORTH DAKOTA

CITY           SKY/WX    TMP DP  RH WIND       PRES   REMARKS
BISMARCK       FAIR      51  42  71 W9        29.91R
6HR MIN TEMP:  43; 6HR MAX TEMP:  51;

DICKINSON      FAIR      44  36  73 NW7       29.96R
GARRISON         N/A     46  41  82 NW12      29.90R
6HR MIN TEMP:  42; 6HR MAX TEMP:  48;

HETTINGER ARPT CLEAR     43  37  79 NW9       30.00R
$$

NDZ004>008-012>016-024-026-027-054-281300-
NORTHEAST NORTH DAKOTA

CITY           SKY/WX    TMP DP  RH WIND       PRES   REMARKS
GRAND FORKS    CLOUDY    53  49  86 NW9       29.74R
GRND FRKS AFB  CLOUDY    52  48  84 NW8       29.75R
DEVILS LAKE    CLOUDY    53  48  83 W14       29.79F
$$

NDZ022-023-025-028>030-036>039-047>053-281300-
SOUTHEAST NORTH DAKOTA

CITY           SKY/WX    TMP DP  RH WIND       PRES   REMARKS
FARGO          SUNNY     51  47  86 W9        29.75S
6HR MIN TEMP:  49; 6HR MAX TEMP:  53; 6HR PCP:  0.01;

JAMESTOWN      CLOUDY    54  45  71 NW13      29.80R
$$




USA.gov is the U.S. government's official web portal to all federal, state and local government web resources and services.